Terug naar catalogus

STARLINK-11142

ActiefCommunicatieVLEO
NORAD 59957·PAYLOAD·🇺🇸 United States

Gelanceerd Jun 5, 2024 vanaf Cape Canaveral Space Force Station

Loading…

Volgende Passages (komende 24 uur)

TLE

VersSource: CelesTrak SupGP

Epoch: Sep 14, 2026, 13:38 UTC

1 59957C 24107N   26257.56854167 -.00012923  00000+0 -10645-3 0  2577
2 59957  53.1571  39.8458 0001063  75.0852   2.3108 15.69716761    17

Volg STARLINK-11142 in realtime met AllMySat

Download on the App Store